Year,Month,Day,Hour,Minute,Value (Times are PST for barometer in hPa)
2015,12,10,00,00,991.87
2015,12,10,00,01,991.77
2015,12,10,00,02,991.74
2015,12,10,00,03,991.70
2015,12,10,00,04,991.67
2015,12,10,00,05,991.60
2015,12,10,00,06,991.53
2015,12,10,00,07,991.50
2015,12,10,00,08,991.42
2015,12,10,00,09,991.33
2015,12,10,00,10,991.30
2015,12,10,00,11,991.26
2015,12,10,00,12,991.20
2015,12,10,00,13,991.13
2015,12,10,00,14,991.06
2015,12,10,00,15,990.99
2015,12,10,00,16,990.92
2015,12,10,00,17,990.78
2015,12,10,00,18,990.65
2015,12,10,00,19,990.54
2015,12,10,00,20,990.38
2015,12,10,00,21,990.38
2015,12,10,00,22,990.32
2015,12,10,00,23,990.25
2015,12,10,00,24,990.17
2015,12,10,00,25,990.08
2015,12,10,00,26,990.03
2015,12,10,00,27,989.93
2015,12,10,00,28,989.74
2015,12,10,00,29,989.66
2015,12,10,00,30,989.57
2015,12,10,00,31,989.54
2015,12,10,00,32,989.53
2015,12,10,00,33,989.36
2015,12,10,00,34,989.13
2015,12,10,00,35,989.12
2015,12,10,00,36,989.00
2015,12,10,00,37,988.92
2015,12,10,00,38,988.76
2015,12,10,00,39,988.71
2015,12,10,00,40,988.59
2015,12,10,00,41,988.59
2015,12,10,00,42,988.52
2015,12,10,00,43,988.55
2015,12,10,00,44,988.49
2015,12,10,00,45,988.45
2015,12,10,00,46,988.35
2015,12,10,00,47,988.41
2015,12,10,00,48,988.25
2015,12,10,00,49,988.31
2015,12,10,00,50,988.15
2015,12,10,00,51,988.15
2015,12,10,00,52,988.05
2015,12,10,00,53,988.00
2015,12,10,00,54,987.88
2015,12,10,00,55,987.78
2015,12,10,00,56,987.81
2015,12,10,00,57,987.74
2015,12,10,00,58,987.71
2015,12,10,00,59,987.64
2015,12,10,01,00,987.56
2015,12,10,01,01,987.40
2015,12,10,01,02,987.39
2015,12,10,01,03,987.27
2015,12,10,01,04,987.27
2015,12,10,01,05,987.26
2015,12,10,01,06,987.10
2015,12,10,01,07,987.10
2015,12,10,01,08,987.03
2015,12,10,01,09,987.00
2015,12,10,01,10,986.95
2015,12,10,01,11,986.90
2015,12,10,01,12,986.78
2015,12,10,01,13,986.66
2015,12,10,01,14,986.61
2015,12,10,01,15,986.42
2015,12,10,01,16,986.46
2015,12,10,01,17,986.41
2015,12,10,01,18,986.25
2015,12,10,01,19,986.32
2015,12,10,01,20,986.32
2015,12,10,01,21,986.28
2015,12,10,01,22,986.17
2015,12,10,01,23,986.08
2015,12,10,01,24,986.02
2015,12,10,01,25,985.98
2015,12,10,01,26,985.95
2015,12,10,01,27,985.91
2015,12,10,01,28,985.89
2015,12,10,01,29,985.74
2015,12,10,01,30,985.68
2015,12,10,01,31,985.68
2015,12,10,01,32,985.73
2015,12,10,01,33,985.54
2015,12,10,01,34,985.47
2015,12,10,01,35,985.47
2015,12,10,01,36,985.44
2015,12,10,01,37,985.47
2015,12,10,01,38,985.41
2015,12,10,01,39,985.34
2015,12,10,01,40,985.27
2015,12,10,01,41,985.20
2015,12,10,01,42,985.13
2015,12,10,01,43,985.13
2015,12,10,01,44,985.10
2015,12,10,01,45,985.13
2015,12,10,01,46,985.19
2015,12,10,01,47,985.07
2015,12,10,01,48,985.06
2015,12,10,01,49,984.93
2015,12,10,01,50,984.93
2015,12,10,01,51,984.90
2015,12,10,01,52,984.86
2015,12,10,01,53,984.86
2015,12,10,01,54,984.85
2015,12,10,01,55,984.73
2015,12,10,01,56,984.76
2015,12,10,01,57,984.76
2015,12,10,01,58,984.69
2015,12,10,01,59,984.73
2015,12,10,02,00,984.73
2015,12,10,02,01,984.59
2015,12,10,02,02,984.59
2015,12,10,02,03,984.55
2015,12,10,02,04,984.41
2015,12,10,02,05,984.29
2015,12,10,02,06,984.39
2015,12,10,02,07,984.29
2015,12,10,02,08,984.29
2015,12,10,02,09,984.25
2015,12,10,02,10,984.19
2015,12,10,02,11,984.05
2015,12,10,02,12,984.02
2015,12,10,02,13,983.92
2015,12,10,02,14,983.78
2015,12,10,02,15,983.68
2015,12,10,02,16,983.71
2015,12,10,02,17,983.51
2015,12,10,02,18,983.64
2015,12,10,02,19,983.61
2015,12,10,02,20,983.61
2015,12,10,02,21,983.64
2015,12,10,02,22,983.61
2015,12,10,02,23,983.64
2015,12,10,02,24,983.64
2015,12,10,02,25,983.64
2015,12,10,02,26,983.64
2015,12,10,02,27,983.61
2015,12,10,02,28,983.68
2015,12,10,02,29,983.75
2015,12,10,02,30,983.71
2015,12,10,02,31,983.71
2015,12,10,02,32,983.68
2015,12,10,02,33,983.85
2015,12,10,02,34,983.78
2015,12,10,02,35,983.75
2015,12,10,02,36,983.78
2015,12,10,02,37,983.68
2015,12,10,02,38,983.71
2015,12,10,02,39,983.75
2015,12,10,02,40,983.71
2015,12,10,02,41,983.68
2015,12,10,02,42,983.64
2015,12,10,02,43,983.52
2015,12,10,02,44,983.54
2015,12,10,02,45,983.44
2015,12,10,02,46,983.41
2015,12,10,02,47,983.41
2015,12,10,02,48,983.34
2015,12,10,02,49,983.24
2015,12,10,02,50,983.37
2015,12,10,02,51,983.31
2015,12,10,02,52,983.24
2015,12,10,02,53,983.07
2015,12,10,02,54,983.04
2015,12,10,02,55,983.04
2015,12,10,02,56,983.04
2015,12,10,02,57,983.04
2015,12,10,02,58,983.00
2015,12,10,02,59,983.07
2015,12,10,03,00,982.97
2015,12,10,03,01,982.97
2015,12,10,03,02,982.90
2015,12,10,03,03,982.90
2015,12,10,03,04,982.77
2015,12,10,03,05,982.82
2015,12,10,03,06,982.65
2015,12,10,03,07,982.75
2015,12,10,03,08,982.67
2015,12,10,03,09,982.66
2015,12,10,03,10,982.57
2015,12,10,03,11,982.50
2015,12,10,03,12,982.58
2015,12,10,03,13,982.45
2015,12,10,03,14,982.48
2015,12,10,03,15,982.40
2015,12,10,03,16,982.48
2015,12,10,03,17,982.46
2015,12,10,03,18,982.49
2015,12,10,03,19,982.49
2015,12,10,03,20,982.49
2015,12,10,03,21,982.49
2015,12,10,03,22,982.43
2015,12,10,03,23,982.39
2015,12,10,03,24,982.36
2015,12,10,03,25,982.36
2015,12,10,03,26,982.32
2015,12,10,03,27,982.32
2015,12,10,03,28,982.32
2015,12,10,03,29,982.32
2015,12,10,03,30,982.32
2015,12,10,03,31,982.48
2015,12,10,03,32,982.44
2015,12,10,03,33,982.39
2015,12,10,03,34,982.45
2015,12,10,03,35,982.49
2015,12,10,03,36,982.43
2015,12,10,03,37,982.62
2015,12,10,03,38,982.69
2015,12,10,03,39,982.66
2015,12,10,03,40,982.70
2015,12,10,03,41,982.73
2015,12,10,03,42,982.86
2015,12,10,03,43,982.93
2015,12,10,03,44,982.84
2015,12,10,03,45,982.77
2015,12,10,03,46,982.70
2015,12,10,03,47,982.88
2015,12,10,03,48,982.81
2015,12,10,03,49,982.71
2015,12,10,03,50,982.66
2015,12,10,03,51,982.70
2015,12,10,03,52,982.75
2015,12,10,03,53,982.67
2015,12,10,03,54,982.60
2015,12,10,03,55,982.63
2015,12,10,03,56,982.54
2015,12,10,03,57,982.53
2015,12,10,03,58,982.53
2015,12,10,03,59,982.53
2015,12,10,04,00,982.53
2015,12,10,04,01,982.40
2015,12,10,04,02,982.39
2015,12,10,04,03,982.27
2015,12,10,04,04,982.29
2015,12,10,04,05,982.35
2015,12,10,04,06,982.36
2015,12,10,04,07,982.32
2015,12,10,04,08,982.36
2015,12,10,04,09,982.42
2015,12,10,04,10,982.30
2015,12,10,04,11,982.20
2015,12,10,04,12,982.10
2015,12,10,04,13,982.09
2015,12,10,04,14,982.14
2015,12,10,04,15,982.25
2015,12,10,04,16,982.00
2015,12,10,04,17,981.99
2015,12,10,04,18,982.04
2015,12,10,04,19,982.12
2015,12,10,04,20,982.09
2015,12,10,04,21,982.03
2015,12,10,04,22,981.95
2015,12,10,04,23,981.99
2015,12,10,04,24,981.89
2015,12,10,04,25,981.92
2015,12,10,04,26,981.92
2015,12,10,04,27,981.86
2015,12,10,04,28,981.88
2015,12,10,04,29,981.83
2015,12,10,04,30,981.78
2015,12,10,04,31,981.78
2015,12,10,04,32,981.78
2015,12,10,04,33,981.75
2015,12,10,04,34,981.78
2015,12,10,04,35,981.66
2015,12,10,04,36,981.65
2015,12,10,04,37,981.68
2015,12,10,04,38,981.59
2015,12,10,04,39,981.61
2015,12,10,04,40,981.58
2015,12,10,04,41,981.52
2015,12,10,04,42,981.48
2015,12,10,04,43,981.48
2015,12,10,04,44,981.35
2015,12,10,04,45,981.38
2015,12,10,04,46,981.41
2015,12,10,04,47,981.35
2015,12,10,04,48,981.31
2015,12,10,04,49,981.31
2015,12,10,04,50,981.31
2015,12,10,04,51,981.22
2015,12,10,04,52,981.15
2015,12,10,04,53,981.10
2015,12,10,04,54,981.07
2015,12,10,04,55,981.07
2015,12,10,04,56,980.98
2015,12,10,04,57,980.75
2015,12,10,04,58,980.77
2015,12,10,04,59,980.73
2015,12,10,05,00,980.94
2015,12,10,05,01,980.88
2015,12,10,05,02,980.81
2015,12,10,05,03,980.77
2015,12,10,05,04,980.67
2015,12,10,05,05,980.61
2015,12,10,05,06,980.66
2015,12,10,05,07,980.70
2015,12,10,05,08,980.64
2015,12,10,05,09,980.51
2015,12,10,05,10,980.37
2015,12,10,05,11,980.45
2015,12,10,05,12,980.52
2015,12,10,05,13,980.40
2015,12,10,05,14,980.45
2015,12,10,05,15,980.43
2015,12,10,05,16,980.39
2015,12,10,05,17,980.30
2015,12,10,05,18,980.44
2015,12,10,05,19,980.59
2015,12,10,05,20,980.60
2015,12,10,05,21,980.56
2015,12,10,05,22,980.66
2015,12,10,05,23,980.54
2015,12,10,05,24,980.53
2015,12,10,05,25,980.62
2015,12,10,05,26,980.63
2015,12,10,05,27,980.56
2015,12,10,05,28,980.56
2015,12,10,05,29,980.56
2015,12,10,05,30,980.62
2015,12,10,05,31,980.66
2015,12,10,05,32,980.76
2015,12,10,05,33,980.70
2015,12,10,05,34,980.66
2015,12,10,05,35,980.54
2015,12,10,05,36,980.64
2015,12,10,05,37,980.63
2015,12,10,05,38,980.47
2015,12,10,05,39,980.43
2015,12,10,05,40,980.53
2015,12,10,05,41,980.38
2015,12,10,05,42,980.49
2015,12,10,05,43,980.46
2015,12,10,05,44,980.50
2015,12,10,05,45,980.29
2015,12,10,05,46,980.32
2015,12,10,05,47,980.33
2015,12,10,05,48,980.29
2015,12,10,05,49,980.26
2015,12,10,05,50,980.32
2015,12,10,05,51,980.23
2015,12,10,05,52,980.19
2015,12,10,05,53,980.07
2015,12,10,05,54,980.02
2015,12,10,05,55,980.09
2015,12,10,05,56,979.96
2015,12,10,05,57,979.89
2015,12,10,05,58,979.89
2015,12,10,05,59,979.83
2015,12,10,06,00,979.69
2015,12,10,06,01,979.56
2015,12,10,06,02,979.60
2015,12,10,06,03,979.49
2015,12,10,06,04,979.39
2015,12,10,06,05,979.19
2015,12,10,06,06,979.11
2015,12,10,06,07,979.11
2015,12,10,06,08,979.07
2015,12,10,06,09,979.11
2015,12,10,06,10,979.02
2015,12,10,06,11,979.01
2015,12,10,06,12,978.95
2015,12,10,06,13,979.20
2015,12,10,06,14,979.08
2015,12,10,06,15,979.11
2015,12,10,06,16,979.21
2015,12,10,06,17,979.08
2015,12,10,06,18,979.14
2015,12,10,06,19,979.23
2015,12,10,06,20,979.18
2015,12,10,06,21,979.14
2015,12,10,06,22,979.02
2015,12,10,06,23,979.04
2015,12,10,06,24,978.98
2015,12,10,06,25,978.94
2015,12,10,06,26,978.94
2015,12,10,06,27,978.94
2015,12,10,06,28,978.97
2015,12,10,06,29,978.97
2015,12,10,06,30,978.90
2015,12,10,06,31,978.90
2015,12,10,06,32,978.75
2015,12,10,06,33,978.77
2015,12,10,06,34,978.64
2015,12,10,06,35,978.69
2015,12,10,06,36,978.73
2015,12,10,06,37,978.77
2015,12,10,06,38,978.62
2015,12,10,06,39,978.60
2015,12,10,06,40,978.51
2015,12,10,06,41,978.46
2015,12,10,06,42,978.36
2015,12,10,06,43,978.42
2015,12,10,06,44,978.43
2015,12,10,06,45,978.34
2015,12,10,06,46,978.36
2015,12,10,06,47,978.40
2015,12,10,06,48,978.36
2015,12,10,06,49,978.24
2015,12,10,06,50,978.28
2015,12,10,06,51,978.23
2015,12,10,06,52,978.19
2015,12,10,06,53,978.23
2015,12,10,06,54,978.17
2015,12,10,06,55,978.23
2015,12,10,06,56,978.19
2015,12,10,06,57,978.26
2015,12,10,06,58,978.23
2015,12,10,06,59,978.19
2015,12,10,07,00,978.10
2015,12,10,07,01,978.12
2015,12,10,07,02,978.12
2015,12,10,07,03,978.12
2015,12,10,07,04,978.09
2015,12,10,07,05,978.03
2015,12,10,07,06,978.06
2015,12,10,07,07,978.06
2015,12,10,07,08,978.00
2015,12,10,07,09,977.90
2015,12,10,07,10,977.76
2015,12,10,07,11,977.75
2015,12,10,07,12,977.72
2015,12,10,07,13,977.65
2015,12,10,07,14,977.56
2015,12,10,07,15,977.52
2015,12,10,07,16,977.48
2015,12,10,07,17,977.45
2015,12,10,07,18,977.48
2015,12,10,07,19,977.48
2015,12,10,07,20,977.36
2015,12,10,07,21,977.31
2015,12,10,07,22,977.41
2015,12,10,07,23,977.36
2015,12,10,07,24,977.25
2015,12,10,07,25,977.28
2015,12,10,07,26,977.28
2015,12,10,07,27,977.24
2015,12,10,07,28,977.15
2015,12,10,07,29,977.18
2015,12,10,07,30,977.05
2015,12,10,07,31,977.01
2015,12,10,07,32,977.01
2015,12,10,07,33,976.94
2015,12,10,07,34,976.97
2015,12,10,07,35,976.85
2015,12,10,07,36,976.80
2015,12,10,07,37,976.87
2015,12,10,07,38,976.78
2015,12,10,07,39,976.84
2015,12,10,07,40,976.65
2015,12,10,07,41,976.69
2015,12,10,07,42,976.51
2015,12,10,07,43,976.47
2015,12,10,07,44,976.47
2015,12,10,07,45,976.47
2015,12,10,07,46,976.37
2015,12,10,07,47,976.40
2015,12,10,07,48,976.33
2015,12,10,07,49,976.36
2015,12,10,07,50,976.49
2015,12,10,07,51,976.18
2015,12,10,07,52,976.09
2015,12,10,07,53,976.24
2015,12,10,07,54,976.26
2015,12,10,07,55,976.10
2015,12,10,07,56,976.22
2015,12,10,07,57,976.33
2015,12,10,07,58,976.27
2015,12,10,07,59,976.35
2015,12,10,08,00,976.30
2015,12,10,08,01,976.24
2015,12,10,08,02,976.32
2015,12,10,08,03,976.33
2015,12,10,08,04,976.36
2015,12,10,08,05,976.27
2015,12,10,08,06,976.23
2015,12,10,08,07,976.26
2015,12,10,08,08,976.26
2015,12,10,08,09,976.26
2015,12,10,08,10,976.26
2015,12,10,08,11,976.30
2015,12,10,08,12,976.10
2015,12,10,08,13,976.18
2015,12,10,08,14,976.19
2015,12,10,08,15,976.19
2015,12,10,08,16,976.04
2015,12,10,08,17,976.06
2015,12,10,08,18,975.93
2015,12,10,08,19,975.89
2015,12,10,08,20,975.83
2015,12,10,08,21,975.91
2015,12,10,08,22,975.92
2015,12,10,08,23,975.77
2015,12,10,08,24,975.98
2015,12,10,08,25,975.99
2015,12,10,08,26,975.90
2015,12,10,08,27,976.11
2015,12,10,08,28,976.00
2015,12,10,08,29,976.03
2015,12,10,08,30,976.06
2015,12,10,08,31,975.97
2015,12,10,08,32,975.96
2015,12,10,08,33,975.92
2015,12,10,08,34,976.12
2015,12,10,08,35,976.07
2015,12,10,08,36,975.99
2015,12,10,08,37,976.03
2015,12,10,08,38,975.97
2015,12,10,08,39,976.15
2015,12,10,08,40,976.13
2015,12,10,08,41,976.28
2015,12,10,08,42,976.33
2015,12,10,08,43,976.36
2015,12,10,08,44,976.30
2015,12,10,08,45,976.14
2015,12,10,08,46,976.25
2015,12,10,08,47,976.30
2015,12,10,08,48,976.30
2015,12,10,08,49,976.30
2015,12,10,08,50,976.26
2015,12,10,08,51,976.39
2015,12,10,08,52,976.31
2015,12,10,08,53,976.46
2015,12,10,08,54,976.47
2015,12,10,08,55,976.43
2015,12,10,08,56,976.31
2015,12,10,08,57,976.33
2015,12,10,08,58,976.40
2015,12,10,08,59,976.27
2015,12,10,09,00,976.23
2015,12,10,09,01,976.23
2015,12,10,09,02,976.32
2015,12,10,09,03,976.27
2015,12,10,09,04,976.19
2015,12,10,09,05,976.13
2015,12,10,09,06,976.25
2015,12,10,09,07,976.20
2015,12,10,09,08,976.19
2015,12,10,09,09,976.09
2015,12,10,09,10,976.06
2015,12,10,09,11,976.06
2015,12,10,09,12,975.99
2015,12,10,09,13,975.99
2015,12,10,09,14,975.96
2015,12,10,09,15,976.05
2015,12,10,09,16,976.03
2015,12,10,09,17,976.15
2015,12,10,09,18,976.23
2015,12,10,09,19,976.26
2015,12,10,09,20,976.30
2015,12,10,09,21,976.40
2015,12,10,09,22,976.49
2015,12,10,09,23,976.44
2015,12,10,09,24,976.58
2015,12,10,09,25,976.76
2015,12,10,09,26,976.68
2015,12,10,09,27,976.77
2015,12,10,09,28,976.68
2015,12,10,09,29,976.74
2015,12,10,09,30,976.74
2015,12,10,09,31,976.74
2015,12,10,09,32,976.70
2015,12,10,09,33,976.63
2015,12,10,09,34,976.67
2015,12,10,09,35,976.70
2015,12,10,09,36,976.70
2015,12,10,09,37,976.83
2015,12,10,09,38,976.87
2015,12,10,09,39,976.84
2015,12,10,09,40,976.80
2015,12,10,09,41,976.68
2015,12,10,09,42,976.58
2015,12,10,09,43,976.44
2015,12,10,09,44,976.36
2015,12,10,09,45,976.46
2015,12,10,09,46,976.50
2015,12,10,09,47,976.53
2015,12,10,09,48,976.57
2015,12,10,09,49,976.53
2015,12,10,09,50,976.50
2015,12,10,09,51,976.50
2015,12,10,09,52,976.43
2015,12,10,09,53,976.50
2015,12,10,09,54,976.53
2015,12,10,09,55,976.59
2015,12,10,09,56,976.57
2015,12,10,09,57,976.57
2015,12,10,09,58,976.47
2015,12,10,09,59,976.32
2015,12,10,10,00,976.26
2015,12,10,10,01,976.05
2015,12,10,10,02,975.93
2015,12,10,10,03,976.22
2015,12,10,10,04,976.30
2015,12,10,10,05,976.30
2015,12,10,10,06,976.23
2015,12,10,10,07,976.39
2015,12,10,10,08,976.27
2015,12,10,10,09,976.30
2015,12,10,10,10,976.42
2015,12,10,10,11,976.52
2015,12,10,10,12,976.62
2015,12,10,10,13,976.70
2015,12,10,10,14,976.70
2015,12,10,10,15,976.54
2015,12,10,10,16,976.50
2015,12,10,10,17,976.44
2015,12,10,10,18,976.43
2015,12,10,10,19,976.52
2015,12,10,10,20,976.50
2015,12,10,10,21,976.50
2015,12,10,10,22,976.57
2015,12,10,10,23,976.53
2015,12,10,10,24,976.50
2015,12,10,10,25,976.65
2015,12,10,10,26,976.63
2015,12,10,10,27,976.67
2015,12,10,10,28,976.58
2015,12,10,10,29,976.57
2015,12,10,10,30,976.50
2015,12,10,10,31,976.53
2015,12,10,10,32,976.43
2015,12,10,10,33,976.43
2015,12,10,10,34,976.47
2015,12,10,10,35,976.53
2015,12,10,10,36,976.47
2015,12,10,10,37,976.53
2015,12,10,10,38,976.47
2015,12,10,10,39,976.47
2015,12,10,10,40,976.53
2015,12,10,10,41,976.53
2015,12,10,10,42,976.57
2015,12,10,10,43,976.69
2015,12,10,10,44,976.74
2015,12,10,10,45,976.80
2015,12,10,10,46,976.80
2015,12,10,10,47,976.91
2015,12,10,10,48,976.87
2015,12,10,10,49,976.94
2015,12,10,10,50,976.91
2015,12,10,10,51,976.97
2015,12,10,10,52,977.01
2015,12,10,10,53,977.08
2015,12,10,10,54,977.02
2015,12,10,10,55,977.08
2015,12,10,10,56,977.11
2015,12,10,10,57,977.11
2015,12,10,10,58,977.23
2015,12,10,10,59,977.21
2015,12,10,11,00,977.24
2015,12,10,11,01,977.24
2015,12,10,11,02,977.24
2015,12,10,11,03,977.30
2015,12,10,11,04,977.35
2015,12,10,11,05,977.38
2015,12,10,11,06,977.45
2015,12,10,11,07,977.41
2015,12,10,11,08,977.45
2015,12,10,11,09,977.41
2015,12,10,11,10,977.32
2015,12,10,11,11,977.41
2015,12,10,11,12,977.19
2015,12,10,11,13,977.33
2015,12,10,11,14,977.35
2015,12,10,11,15,977.41
2015,12,10,11,16,977.41
2015,12,10,11,17,977.41
2015,12,10,11,18,977.45
2015,12,10,11,19,977.54
2015,12,10,11,20,977.62
2015,12,10,11,21,977.62
2015,12,10,11,22,977.62
2015,12,10,11,23,977.58
2015,12,10,11,24,977.65
2015,12,10,11,25,977.72
2015,12,10,11,26,977.68
2015,12,10,11,27,977.68
2015,12,10,11,28,977.74
2015,12,10,11,29,977.75
2015,12,10,11,30,977.79
2015,12,10,11,31,977.79
2015,12,10,11,32,977.85
2015,12,10,11,33,977.96
2015,12,10,11,34,977.96
2015,12,10,11,35,978.02
2015,12,10,11,36,978.06
2015,12,10,11,37,978.15
2015,12,10,11,38,978.09
2015,12,10,11,39,978.15
2015,12,10,11,40,978.16
2015,12,10,11,41,978.26
2015,12,10,11,42,978.26
2015,12,10,11,43,978.32
2015,12,10,11,44,978.40
2015,12,10,11,45,978.46
2015,12,10,11,46,978.46
2015,12,10,11,47,978.50
2015,12,10,11,48,978.57
2015,12,10,11,49,978.57
2015,12,10,11,50,978.57
2015,12,10,11,51,978.63
2015,12,10,11,52,978.63
2015,12,10,11,53,978.67
2015,12,10,11,54,978.72
2015,12,10,11,55,978.73
2015,12,10,11,56,978.86
2015,12,10,11,57,978.87
2015,12,10,11,58,978.93
2015,12,10,11,59,978.94
2015,12,10,12,00,978.97
2015,12,10,12,01,979.01
2015,12,10,12,02,979.07
2015,12,10,12,03,979.02
2015,12,10,12,04,979.01
2015,12,10,12,05,979.07
2015,12,10,12,06,979.11
2015,12,10,12,07,979.14
2015,12,10,12,08,979.17
2015,12,10,12,09,979.24
2015,12,10,12,10,979.24
2015,12,10,12,11,979.28
2015,12,10,12,12,979.33
2015,12,10,12,13,979.40
2015,12,10,12,14,979.48
2015,12,10,12,15,979.55
2015,12,10,12,16,979.55
2015,12,10,12,17,979.55
2015,12,10,12,18,979.58
2015,12,10,12,19,979.64
2015,12,10,12,20,979.72
2015,12,10,12,21,979.68
2015,12,10,12,22,979.74
2015,12,10,12,23,979.78
2015,12,10,12,24,979.88
2015,12,10,12,25,979.92
2015,12,10,12,26,979.95
2015,12,10,12,27,979.95
2015,12,10,12,28,979.95
2015,12,10,12,29,980.02
2015,12,10,12,30,980.11
2015,12,10,12,31,980.09
2015,12,10,12,32,980.16
2015,12,10,12,33,980.21
2015,12,10,12,34,980.26
2015,12,10,12,35,980.33
2015,12,10,12,36,980.36
2015,12,10,12,37,980.39
2015,12,10,12,38,980.52
2015,12,10,12,39,980.56
2015,12,10,12,40,980.56
2015,12,10,12,41,980.66
2015,12,10,12,42,980.63
2015,12,10,12,43,980.63
2015,12,10,12,44,980.63
2015,12,10,12,45,980.63
2015,12,10,12,46,980.78
2015,12,10,12,47,980.83
2015,12,10,12,48,980.83
2015,12,10,12,49,980.87
2015,12,10,12,50,980.80
2015,12,10,12,51,980.99
2015,12,10,12,52,980.97
2015,12,10,12,53,980.97
2015,12,10,12,54,981.00
2015,12,10,12,55,981.07
2015,12,10,12,56,981.14
2015,12,10,12,57,981.17
2015,12,10,12,58,981.23
2015,12,10,12,59,981.24
2015,12,10,13,00,981.24
2015,12,10,13,01,981.27
2015,12,10,13,02,981.27
2015,12,10,13,03,981.33
2015,12,10,13,04,981.38
2015,12,10,13,05,981.44
2015,12,10,13,06,981.54
2015,12,10,13,07,981.60
2015,12,10,13,08,981.68
2015,12,10,13,09,981.71
2015,12,10,13,10,981.75
2015,12,10,13,11,981.71
2015,12,10,13,12,981.71
2015,12,10,13,13,981.81
2015,12,10,13,14,981.88
2015,12,10,13,15,981.85
2015,12,10,13,16,981.88
2015,12,10,13,17,981.92
2015,12,10,13,18,981.95
2015,12,10,13,19,981.99
2015,12,10,13,20,982.09
2015,12,10,13,21,982.09
2015,12,10,13,22,982.12
2015,12,10,13,23,982.15
2015,12,10,13,24,982.15
2015,12,10,13,25,982.15
2015,12,10,13,26,982.26
2015,12,10,13,27,982.29
2015,12,10,13,28,982.23
2015,12,10,13,29,982.35
2015,12,10,13,30,982.29
2015,12,10,13,31,982.36
2015,12,10,13,32,982.36
2015,12,10,13,33,982.36
2015,12,10,13,34,982.46
2015,12,10,13,35,982.49
2015,12,10,13,36,982.49
2015,12,10,13,37,982.53
2015,12,10,13,38,982.53
2015,12,10,13,39,982.59
2015,12,10,13,40,982.84
2015,12,10,13,41,982.87
2015,12,10,13,42,982.92
2015,12,10,13,43,982.90
2015,12,10,13,44,982.87
2015,12,10,13,45,982.93
2015,12,10,13,46,982.90
2015,12,10,13,47,982.97
2015,12,10,13,48,983.00
2015,12,10,13,49,983.04
2015,12,10,13,50,983.04
2015,12,10,13,51,983.07
2015,12,10,13,52,983.16
2015,12,10,13,53,983.08
2015,12,10,13,54,983.16
2015,12,10,13,55,983.23
2015,12,10,13,56,983.15
2015,12,10,13,57,983.26
2015,12,10,13,58,983.27
2015,12,10,13,59,983.31
2015,12,10,14,00,983.24
2015,12,10,14,01,983.36
2015,12,10,14,02,983.41
2015,12,10,14,03,983.37
2015,12,10,14,04,983.51
2015,12,10,14,05,983.44
2015,12,10,14,06,983.57
2015,12,10,14,07,983.64
2015,12,10,14,08,983.54
2015,12,10,14,09,983.63
2015,12,10,14,10,983.68
2015,12,10,14,11,983.71
2015,12,10,14,12,983.75
2015,12,10,14,13,983.78
2015,12,10,14,14,983.71
2015,12,10,14,15,983.71
2015,12,10,14,16,983.78
2015,12,10,14,17,983.85
2015,12,10,14,18,983.92
2015,12,10,14,19,983.92
2015,12,10,14,20,984.02
2015,12,10,14,21,984.08
2015,12,10,14,22,984.08
2015,12,10,14,23,984.12
2015,12,10,14,24,984.18
2015,12,10,14,25,984.22
2015,12,10,14,26,984.25
2015,12,10,14,27,984.32
2015,12,10,14,28,984.29
2015,12,10,14,29,984.41
2015,12,10,14,30,984.30
2015,12,10,14,31,984.29
2015,12,10,14,32,984.29
2015,12,10,14,33,984.32
2015,12,10,14,34,984.29
2015,12,10,14,35,984.39
2015,12,10,14,36,984.36
2015,12,10,14,37,984.36
2015,12,10,14,38,984.52
2015,12,10,14,39,984.56
2015,12,10,14,40,984.53
2015,12,10,14,41,984.62
2015,12,10,14,42,984.59
2015,12,10,14,43,984.53
2015,12,10,14,44,984.62
2015,12,10,14,45,984.66
2015,12,10,14,46,984.69
2015,12,10,14,47,984.73
2015,12,10,14,48,984.69
2015,12,10,14,49,984.73
2015,12,10,14,50,984.73
2015,12,10,14,51,984.76
2015,12,10,14,52,984.80
2015,12,10,14,53,984.86
2015,12,10,14,54,984.83
2015,12,10,14,55,984.76
2015,12,10,14,56,984.83
2015,12,10,14,57,984.86
2015,12,10,14,58,984.90
2015,12,10,14,59,984.97
2015,12,10,15,00,985.00
2015,12,10,15,01,985.00
2015,12,10,15,02,985.12
2015,12,10,15,03,985.01
2015,12,10,15,04,985.03
2015,12,10,15,05,985.12
2015,12,10,15,06,985.23
2015,12,10,15,07,985.17
2015,12,10,15,08,985.13
2015,12,10,15,09,985.10
2015,12,10,15,10,985.23
2015,12,10,15,11,985.24
2015,12,10,15,12,985.20
2015,12,10,15,13,985.27
2015,12,10,15,14,985.24
2015,12,10,15,15,985.34
2015,12,10,15,16,985.34
2015,12,10,15,17,985.37
2015,12,10,15,18,985.34
2015,12,10,15,19,985.44
2015,12,10,15,20,985.41
2015,12,10,15,21,985.41
2015,12,10,15,22,985.47
2015,12,10,15,23,985.51
2015,12,10,15,24,985.51
2015,12,10,15,25,985.54
2015,12,10,15,26,985.51
2015,12,10,15,27,985.57
2015,12,10,15,28,985.57
2015,12,10,15,29,985.70
2015,12,10,15,30,985.64
2015,12,10,15,31,985.71
2015,12,10,15,32,985.74
2015,12,10,15,33,985.71
2015,12,10,15,34,985.78
2015,12,10,15,35,985.81
2015,12,10,15,36,985.85
2015,12,10,15,37,986.09
2015,12,10,15,38,986.47
2015,12,10,15,39,986.56
2015,12,10,15,40,986.52
2015,12,10,15,41,986.49
2015,12,10,15,42,986.61
2015,12,10,15,43,986.59
2015,12,10,15,44,986.56
2015,12,10,15,45,986.56
2015,12,10,15,46,986.47
2015,12,10,15,47,986.55
2015,12,10,15,48,986.49
2015,12,10,15,49,986.49
2015,12,10,15,50,986.46
2015,12,10,15,51,986.52
2015,12,10,15,52,986.56
2015,12,10,15,53,986.56
2015,12,10,15,54,986.49
2015,12,10,15,55,986.59
2015,12,10,15,56,986.62
2015,12,10,15,57,986.66
2015,12,10,15,58,986.69
2015,12,10,15,59,986.69
2015,12,10,16,00,986.76
2015,12,10,16,01,986.63
2015,12,10,16,02,986.66
2015,12,10,16,03,986.73
2015,12,10,16,04,986.76
2015,12,10,16,05,986.66
2015,12,10,16,06,986.69
2015,12,10,16,07,986.73
2015,12,10,16,08,986.85
2015,12,10,16,09,986.86
2015,12,10,16,10,986.93
2015,12,10,16,11,986.96
2015,12,10,16,12,986.96
2015,12,10,16,13,986.96
2015,12,10,16,14,986.93
2015,12,10,16,15,986.93
2015,12,10,16,16,986.90
2015,12,10,16,17,986.90
2015,12,10,16,18,986.93
2015,12,10,16,19,986.96
2015,12,10,16,20,986.90
2015,12,10,16,21,986.93
2015,12,10,16,22,986.93
2015,12,10,16,23,986.86
2015,12,10,16,24,986.92
2015,12,10,16,25,986.93
2015,12,10,16,26,986.90
2015,12,10,16,27,986.86
2015,12,10,16,28,986.93
2015,12,10,16,29,986.96
2015,12,10,16,30,986.90
2015,12,10,16,31,986.93
2015,12,10,16,32,986.96
2015,12,10,16,33,987.05
2015,12,10,16,34,987.10
2015,12,10,16,35,987.10
2015,12,10,16,36,987.17